カタログに戻る

STARLINK-1227

運用中通信VLEO
NORAD 45230·PAYLOAD·🇺🇸 United States

打ち上げ Feb 17, 2020 から Cape Canaveral Space Force Station

Loading…

次のパス (今後24時間)

TLE

最新Source: CelesTrak SupGP

元期: Sep 15, 2026, 01:39 UTC

1 45230C 20012BE  26258.06923611  .00051593  00000+0  74854-3 0  2581
2 45230  53.1469 179.9140 0003631 120.4916 297.5568 15.55179424    17

AllMySatでSTARLINK-1227をリアルタイム追跡

Download on the App Store